Arden, NC

12:18 AM EST on December 08, 2016 (GMT -0500)
Asheville Regional

Weather History for KAVL - January, 2011

Change the Weather History Date:

Thursday, January 6, 2011

  Actual Average Record
Temperature  
Mean Temperature 36 °F 37 °F  
Max Temperature 42 °F 47 °F 69 °F (1907)
Min Temperature 29 °F 27 °F -5 °F (1924)
Degree Days  
Heating Degree Days 29 28  
Month to date heating degree days 159 168  
Since 1 July heating degree days 2027 1829  
Cooling Degree Days 0 0  
Month to date cooling degree days 0 0  
Year to date cooling degree days 0 0  
Moisture  
Dew Point 28 °F    
Average Humidity 74    
Maximum Humidity 100    
Minimum Humidity 48    
Precipitation  
Precipitation T in 0.12 in 1.51 in (1995)
Month to date precipitation 0.55 0.67  
Year to date precipitation 0.55 0.67  
Snow  
Snow T in 0.10 in 5.70 in (1996)
Month to date snowfall T 0.7  
Since 1 July snowfall 10.8 1.7  
Snow Depth 0.00 in    
Sea Level Pressure  
Sea Level Pressure 29.69 in    
Wind  
Wind Speed 7 mph (NNW)    
Max Wind Speed 18 mph    
Max Gust Speed 23 mph    
Visibility 8 miles    
Events Rain , Snow    
T = Trace of Precipitation, MM = Missing Value Source: NWS Daily Summary

Daily Weather History Graph

Daily Weather History Graph

Search for Another Location

Airport or City:

Trip Planner

Search our weather history database for the weather conditions in past years. The results will help you decide how hot, cold, wet, or windy it might be!

Date:

Astronomy

Jan. 06, 2011 Rise Set
Actual Time 7:39 AM EST 5:32 PM EST
Civil Twilight 7:11 AM EST 6:00 PM EST
Nautical Twilight 6:40 AM EST 6:31 PM EST
Astronomical Twilight 6:09 AM EST 7:02 PM EST
Moon 9:00 AM EST (1/6) 8:01 PM EST (1/6)
Length of Visible Light 10h 48m
Length of Day
9h 52m
Waxing Crescent, 5% of the Moon is Illuminated
Jan 6
Waxing Crescent
Jan 12
First Quarter
Jan 19
Full
Jan 26
Last Quarter
Feb 2
New

Hourly Weather History & Observations

Time (EST) Temp. Windchill Dew Point Humidity Pressure Visibility Wind Dir Wind Speed Gust Speed Precip Events Conditions
12:07 AM 33.8 °F 29.6 °F 32.0 °F 93% 29.73 in 4.0 mi NNW 4.6 mph - N/A   Overcast
12:46 AM 33.8 °F - 32.0 °F 93% 29.71 in 4.0 mi Calm Calm - N/A   Overcast
12:54 AM 33.1 °F - 32.0 °F 96% 29.73 in 3.0 mi Calm Calm - N/A   Overcast
1:04 AM 33.8 °F 30.8 °F 32.0 °F 93% 29.71 in 3.0 mi North 3.5 mph - N/A   Overcast
1:23 AM 33.8 °F - 32.0 °F 93% 29.70 in 4.0 mi Calm Calm - N/A   Overcast
1:54 AM 34.0 °F 31.0 °F 32.0 °F 92% 29.71 in 3.0 mi North 3.5 mph - N/A   Overcast
2:41 AM 33.8 °F 27.0 °F 32.0 °F 93% 29.69 in 5.0 mi North 8.1 mph - N/A   Overcast
2:54 AM 34.0 °F 26.0 °F 32.0 °F 92% 29.70 in 6.0 mi NNW 10.4 mph - N/A   Overcast
3:04 AM 33.8 °F 25.3 °F 32.0 °F 93% 29.69 in 7.0 mi NNW 11.5 mph - 0.00 in   Overcast
3:16 AM 33.8 °F 23.5 °F 32.0 °F 93% 29.69 in 8.0 mi NNW 16.1 mph 20.7 mph 0.00 in   Overcast
3:42 AM 33.8 °F 23.9 °F 30.2 °F 87% 29.70 in 9.0 mi NNW 15.0 mph - 0.00 in Snow Light Snow
4:04 AM 33.8 °F 23.2 °F 30.2 °F 87% 29.69 in 10.0 mi NNW 17.3 mph 23.0 mph 0.00 in   Overcast
4:11 AM 33.8 °F 22.8 °F 30.2 °F 87% 29.69 in 10.0 mi North 18.4 mph 23.0 mph 0.00 in Rain Light Rain
4:37 AM 33.8 °F 24.3 °F 28.4 °F 81% 29.70 in 10.0 mi NNW 13.8 mph - 0.00 in Snow Light Snow
4:54 AM 33.1 °F 23.9 °F 28.9 °F 85% 29.71 in 10.0 mi NNW 12.7 mph - 0.00 in   Overcast
5:22 AM 33.8 °F 24.8 °F 28.4 °F 81% 29.70 in 10.0 mi NNW 12.7 mph - N/A   Overcast
5:54 AM 32.0 °F 23.6 °F 28.0 °F 85% 29.72 in 10.0 mi NNW 10.4 mph - N/A   Mostly Cloudy
6:54 AM 30.2 °F 23.4 °F 28.4 °F 93% 29.71 in 10.0 mi North 6.9 mph - N/A   Mostly Cloudy
7:54 AM 30.9 °F 27.5 °F 27.0 °F 85% 29.73 in 10.0 mi North 3.5 mph - N/A   Mostly Cloudy
8:04 AM 30.2 °F 25.4 °F 28.4 °F 93% 29.71 in 10.0 mi NNE 4.6 mph - N/A   Mostly Cloudy
8:27 AM 32.0 °F 27.5 °F 26.6 °F 80% 29.71 in 10.0 mi North 4.6 mph - N/A   Scattered Clouds
8:54 AM 32.0 °F 25.6 °F 26.1 °F 79% 29.74 in 10.0 mi NNW 6.9 mph - N/A   Clear
9:54 AM 33.1 °F 25.5 °F 27.0 °F 78% 29.76 in 10.0 mi NNW 9.2 mph - N/A   Clear
10:54 AM 34.0 °F - 27.0 °F 75% 29.75 in 10.0 mi Calm Calm - N/A   Clear
11:54 AM 37.0 °F 32.4 °F 28.0 °F 70% 29.72 in 10.0 mi North 5.8 mph - N/A   Clear
12:54 PM 37.9 °F - 25.0 °F 60% 29.68 in 10.0 mi Calm Calm - N/A   Clear
1:54 PM 39.9 °F 34.5 °F 21.9 °F 49% 29.65 in 10.0 mi NNW 8.1 mph - N/A   Clear
2:54 PM 39.9 °F 33.4 °F 24.1 °F 53% 29.63 in 10.0 mi NNW 10.4 mph - N/A   Mostly Cloudy
3:54 PM 37.9 °F 30.0 °F 25.0 °F 60% 29.64 in 10.0 mi NNW 12.7 mph - N/A   Overcast
4:54 PM 37.0 °F 29.8 °F 25.0 °F 62% 29.64 in 10.0 mi NNW 10.4 mph - N/A   Overcast
5:54 PM 35.1 °F 26.9 °F 23.0 °F 61% 29.65 in 10.0 mi NNW 11.5 mph - N/A   Overcast
6:54 PM 33.1 °F 28.7 °F 23.0 °F 66% 29.65 in 10.0 mi North 4.6 mph - N/A   Clear
7:54 PM 30.0 °F 24.1 °F 23.0 °F 75% 29.65 in 10.0 mi NNW 5.8 mph - N/A   Partly Cloudy
8:54 PM 28.9 °F 25.2 °F 23.0 °F 78% 29.63 in 10.0 mi NNW 3.5 mph - N/A   Overcast
9:54 PM 30.0 °F - 24.1 °F 79% 29.62 in 10.0 mi Calm Calm - N/A   Overcast
10:54 PM 30.9 °F - 24.1 °F 76% 29.59 in 10.0 mi Calm Calm - N/A   Overcast
11:54 PM 30.9 °F 26.2 °F 24.1 °F 76% 29.58 in 10.0 mi NNW 4.6 mph - N/A   Overcast